Terug naar catalogus

STARLINK-35990

ActiefCommunicatieVLEO
NORAD 66792·PAYLOAD·🇺🇸 United States

Gelanceerd Dec 1, 2025 vanaf Cape Canaveral Space Force Station

Loading…

Volgende Passages (komende 24 uur)

TLE

VersSource: CelesTrak SupGP

Epoch: Sep 15, 2026, 04:10 UTC

1 66792C 25278B   26258.17409722  .00030519  00000+0  11052-2 0  2585
2 66792  42.9990 124.0301 0001562 274.1676 349.4037 15.27569737    16

Volg STARLINK-35990 in realtime met AllMySat

Download on the App Store